Location: *
(49.0044°N, 9.5056°E)
Time: 14:53:02
(UTC+00:00)

COSMOS 2428 - Pass Details

Date: 22 September 2019
Orbit: 846 x 856 km, 70.9° (Epoch: 15 October)

Event Time Altitude Azimuth Distance (km) Brightness Sun altitude
Rises 17:48:53 0° 329° (NNW) 3,417 6.5 -5.4°
Reaches altitude 10° 17:51:21 10° 326° (NW) 2,478 5.8 -5.8°
Maximum altitude 17:56:57 61° 247° (WSW) 961 3.4 -6.7°
Drops below altitude 10° 18:02:30 10° 169° (S) 2,465 4.9 -7.6°
Sets 18:04:58 0° 166° (SSE) 3,398 5.6 -8.0°
